Location: Bartshausen
(51.8454°N, 9.8167°E)
Time: 00:17:37
(UTC+00:00)

Gbstr 26 Del rocket - Pass Details

Date: 08 November 2025
Orbit: 489 x 1220 km, 51.8° (Epoch: 04 December)

Event Time Altitude Azimuth Distance (km) Brightness Sun altitude
Exits shadow 05:40:45 - 258° (WSW) 2,595 5.7 -7.6°
Reaches altitude 10° 05:41:42 10° 258° (WSW) 2,239 5.4 -7.4°
Maximum altitude 05:46:58 85° 169° (S) 861 3.8 -6.7°
Drops below altitude 10° 05:53:30 10° 83° (E) 2,762 7.6 -5.7°
Sets 05:56:24 0° 83° (E) 3,823 8.4 -5.3°
